AirNav   ProFlight Series 2 Aviation Headset
 
 1093 users online  

78PA SAP America Heliport
Newtown Square, Pennsylvania, USA

GOING TO NEWTOWN SQUARE?


FAA INFORMATION EFFECTIVE 18 JUNE 2020

Location

FAA Identifier: 78PA
Lat/Long: 39-59-13.3000N 075-24-57.4000W
39-59.221667N 075-24.956667W
39.9870278,-75.4159444
(estimated)
Elevation: 417 ft. / 127 m (estimated)
Time zone: UTC -4 (UTC -5 during Standard Time)
Zip code: 19073

Heliport Operations

Heliport use: Private use. Permission required prior to landing
Activation date: 02/2007
Control tower: no
ARTCC: NEW YORK CENTER
FSS: WILLIAMSPORT FLIGHT SERVICE STATION
Attendance: 0600-0000
Wind indicator: lighted
Segmented circle: no
Lights: FOR PERIMETER AND LEAD-IN LGTS CALL 610-661-3600.

Heliport Communications

WX AWOS-3T at OQN (8 nm W): 121.4 ((610) 692-6190)
WX ASOS at PHL (11 nm SE): PHONE 215-492-9617
WX AWOS-3 at LOM (11 nm NE): 118.925 (215-646-1068)
WX ASOS at PTW (16 nm NW): 119.425 (610-495-0823)
WX ASOS at PNE (19 nm E): 121.15 (215-677-0146)

Nearby radio navigation aids

VOR radial/distance  VOR name  Freq  Var
MXEr080/12.4MODENA VORTAC113.2009W
PTWr164/15.6POTTSTOWN VORTAC116.5009W
DQOr035/20.5DUPONT VORTAC114.0010W
OODr356/21.7WOODSTOWN VORTAC112.8010W
ARDr246/28.3YARDLEY VOR/DME108.2010W
VCNr332/34.0CEDAR LAKE VOR/DME115.2010W
GXUr280/37.7MC GUIRE VORTAC110.6012W
ETXr170/37.7EAST TEXAS VOR/DME110.2009W

 
NDB name  Hdg/Dist  Freq  Var  ID
AMBLER228/10.327512WING .. -. --.
RAINBOW350/36.536311WRNB .-. -. -...

Heliport Services

Runway Information

Helipad H1

Dimensions: 45 x 45 ft. / 14 x 14 m
Surface: concrete
Runway edge lights: PERI
ALSO LEAD-IN LGTS.
Traffic pattern: leftleft

Heliport Ownership and Management from official FAA records

Ownership: Privately-owned
Owner: SAP AMERICA INC.
3999 WEST CHESTER PIKE
NEWTOWN SQUARE, PA 19073
Phone 610-661-3600
Manager: JACOB DRUMHELLER
3999 WEST CHESTER PIKE
NEWTOWN SQUARE, PA 19073
Phone (610) 661-3313

Additional Remarks

THIS PVT HELIPORT RQRS WRITTEN APVL FOR ACES.
EMERGENCY SERVICE HELICOPTERS CONTACT MANAGER FOR ACCESS DETAILS PHONE 610-661-3600.
USE LICENSED APCH/DEP CORRIDORS 020/200 DEGS AND 250/070 DEGS. CORRIDORS ALSO PROVIDE FOR NOISE ABATEMENT AND GOOD COMMUNITY RELATIONS. AVOID RESIDENTIAL AREAS AROUND FACILITY.
56 FT MAXIMUM ROTOR DIAMETER.
MAX GROSS WEIGHT IS 30,000 LBS..
FOR CD CTC PHILADELPHIA APCH AT 800-354-9884.

Instrument Procedures

There are no published instrument procedures at 78PA.

Some nearby airports with instrument procedures:

KOQN - Brandywine Regional Airport (8 nm W)
KPHL - Philadelphia International Airport (11 nm SE)
KLOM - Wings Field Airport (11 nm NE)
N10 - Perkiomen Valley Airport (13 nm N)
7N7 - Spitfire Aerodrome (15 nm S)
KPTW - Heritage Field Airport (16 nm NW)
N57 - New Garden Airport (19 nm SW)
KPNE - Northeast Philadelphia Airport (19 nm E)
 
Loc | Ops | Rwys | IFR | FBO | Links
Com | Nav | Svcs | Stats | Notes
Area around 78PA (SAP America Heliport)
 
Road maps at: MapQuest Bing Google
 
Aerial photo
WARNING: Photo may not be current or correct
Aerial photo of 78PA (SAP America Heliport)
Photo taken 05-Jun-2012
looking east.

Do you have a better or more recent aerial photo of SAP America Heliport that you would like to share? If so, please send us your photo.

 
Sectional chart

 
Airport distance calculator
Flying to SAP America Heliport? Find the distance to fly.

From to 78PA

Sunrise and sunset
Times for 06-Jul-2020
 Local
(UTC-4)
 Zulu
(UTC)
Morning civil twilight05:0809:08
Sunrise05:4109:41
Sunset20:3200:32
Evening civil twilight21:0501:05

Current date and time
Zulu (UTC)  06-Jul-2020 22:41:39
Local (UTC-4)  06-Jul-2020 18:41:39
 
METAR
KOQN 
8nm W 
062215Z AUTO 08003KT 10SM -VCTSRA SCT033 SCT046 BKN080 22/19 A3003 RMK AO2 LTG DSNT ALQS
KPHL 
11nm SE 
062154Z 18009KT 10SM -TSRA SCT060CB BKN110 BKN220 22/19 A3004 RMK AO2 LTG DSNT ALQDS RAB01 SLP173 OCNL LTGICCG VC SE TS VC SE MOV SE P0002 T02170189
KLOM 
11nm NE 
062215Z AUTO 07005KT 10SM CLR 21/20 A3005 RMK AO2 P0002 T02120203
KPTW 
16nm NW 
062218Z AUTO 09006KT 1 3/4SM +RA BR SCT043 BKN060 OVC110 21/19 A3007 RMK AO2 LTG DSNT ALQDS RAB13 TSE06 P0012 T02110189
KPNE 
19nm E 
062154Z AUTO 07005KT 10SM CLR 22/20 A3005 RMK AO2 LTG DSNT ALQDS RAB15E24 SLP173 P0000 T02170200
TAF
KPHL 
11nm SE 
062041Z 0621/0724 05010KT 6SM SHRA VCTS SCT025CB OVC080 TEMPO 0621/0623 2SM +TSRA BKN025CB FM062300 16007KT P6SM BKN050 BKN200 FM070200 VRB02KT P6SM SCT200 FM070600 VRB02KT 4SM BR SCT010 FM071500 18008KT P6SM SCT250
KPNE 
19nm E 
062034Z 0621/0718 21010KT 6SM -SHRA VCTS SCT020CB BKN090 TEMPO 0621/0623 4SM -SHRA BR BKN025 OVC040 FM062300 VRB04KT P6SM VCSH BKN040 BKN100 FM070200 VRB02KT P6SM SCT100 FM070700 VRB02KT 4SM BR SCT010
NOTAMs
Click for the latest NOTAMs
NOTAMs are issued by the DoD/FAA and will open in a separate window not controlled by AirNav.

 

 
 

Would you like to see your business listed on this page?

 If your business provides an interesting product or service to pilots, flight crews, aircraft, or users of the SAP America Heliport, you should consider listing it here.  To start the listing process, click on the button below
 
Add a business
 

Other Pages about SAP America Heliport

Update a link
 
Copyright © AirNav, LLC. All rights reserved. Privacy Policy  Contact